Find Starlink 32547

NORAD ID: 61919 Int'l Des: 2024-207 Owner: SPXS Country: US Constellation: starlink operational
LEOCIRCULAR

Current View

Loading 3D Globe...

About Starlink 32547

Starlink 32547 (NORAD 61919) is a starlink constellation satellite (v2 mini) launched Nov 11, 2024 by SPXS of US. It operates in LEO, CIRCULAR orbit with a mass of 730.00 kg.

Upcoming Passes

Passes for default location (London). Set your location on the main map for personalized predictions.

Altitude History

Loading altitude history...

Two-Line Element Set

1 61919U 24207H 26236.51630984 .00017480 00000-0 64300-3 0 9992
2 61919 42.9994 53.5468 0000879 281.3144 78.7609 15.27590877100383
Epoch: Aug 24, 2026 • Age: 13 hours

Current Status

Altitude 482.4 km
Apogee / Perigee N/A
Velocity 7.63 km/s
Sub-Earth Point 19.65°N, 83.52°E
Launch Date Nov 11, 2024
Age 1.7 years
Type internet

Technical Details

Classification Payload
Mass 730.00 kg
Dry Mass 700.00 kg
Total Mass 730.00 kg
Length 0.30 m
Diameter 4.10 m
Span 29.00 m
Shape Box + pan
Manufacturer SPXS
Bus Type Starlink V2M
Phase Status In Orbit
Owner/State SPXS/US

Most Searched